Theta_e
311 312 315 321 326 329 329 329 329 328 326 326 326 326 326 325 324 324 323 322 320 318 317 316 316 318 319 321 321 322 323 323 324 325 325 324 324 326 326 327 324 319 317 316 316 318 319 320 321 319 323 323 318 317 315 317 325 326 326 326 326 327 328 327 325 322 319 321 322 318 316 320 321 315 314 314 322 330 326 330 336 332 329 327 327 327 331 336
309 310 313 316 320 326 328 328 329 327 326 326 326 326 325 324 323 323 323 322 320 318 317 317 318 320 321 322 323 323 323 323 324 324 324 322 322 324 324 327 324 317 316 317 316 317 320 321 319 321 328 326 316 316 317 315 321 331 326 321 328 332 327 325 326 322 317 317 319 319 317 317 318 318 316 316 322 327 327 328 338 344 336 329 329 329 332 334
310 310 311 311 315 321 326 328 328 328 326 326 326 326 325 323 322 322 322 321 319 318 318 319 320 321 322 323 323 323 323 323 324 324 323 322 321 321 322 326 325 319 316 318 318 317 320 321 317 323 332 328 320 318 319 316 318 325 321 321 333 333 324 322 323 320 318 317 317 319 316 315 316 316 315 318 324 327 328 325 331 343 342 336 331 329 332 333
309 310 311 311 312 315 322 326 328 328 327 326 326 325 324 322 321 321 321 320 319 319 320 321 321 322 323 323 324 323 323 324 325 324 321 321 321 320 321 325 326 323 318 317 319 318 318 319 317 323 329 330 327 322 319 317 317 317 318 324 328 323 319 320 322 321 319 315 315 319 316 315 316 314 316 320 324 326 326 323 324 334 344 339 330 329 331 332
309 311 314 315 312 313 318 324 328 328 327 327 326 325 324 323 322 322 321 321 321 320 321 322 322 323 323 323 323 323 323 326 326 322 320 321 320 321 323 325 326 325 318 315 317 318 317 317 319 325 329 331 327 325 323 316 314 315 317 323 322 318 316 317 319 317 317 314 315 319 317 316 315 313 317 321 322 321 320 321 323 329 339 338 331 329 330 330
312 314 318 318 316 315 316 321 326 328 328 326 326 325 324 324 323 323 322 321 321 321 322 323 323 323 323 323 324 323 322 326 325 321 322 321 319 322 324 323 323 322 317 314 314 315 317 317 320 324 328 329 324 326 326 314 312 316 316 318 318 316 315 315 316 314 315 315 317 319 316 315 315 315 317 319 319 316 315 316 321 328 331 332 330 329 330 330
315 316 317 317 316 315 314 317 323 327 328 327 326 325 324 324 323 323 322 321 322 322 323 323 323 323 323 324 324 324 322 324 322 319 323 322 321 325 325 321 320 318 314 314 315 316 319 319 322 324 325 326 324 325 323 316 313 316 317 316 314 314 314 315 314 313 315 316 317 316 313 314 317 317 314 317 318 315 317 316 317 324 325 327 329 330 330 330
313 313 313 313 312 312 311 312 316 321 326 327 326 325 324 324 323 323 322 322 322 322 323 322 322 322 324 324 324 326 325 323 321 321 323 324 324 326 325 321 318 315 313 314 316 318 320 320 323 324 323 324 325 323 318 319 318 316 322 319 314 313 314 314 313 314 317 316 315 313 313 316 316 315 314 318 317 314 322 323 322 326 327 328 330 331 330 329
309 309 310 310 309 309 311 310 311 314 319 326 327 324 324 324 324 324 323 323 322 322 322 321 322 323 324 324 324 328 326 323 322 322 323 325 326 327 326 319 315 314 315 315 315 318 320 322 324 324 326 326 323 320 315 322 325 317 318 317 314 314 312 313 313 314 317 316 313 314 315 315 312 312 315 317 315 318 332 336 332 330 331 331 331 330 329 329
307 307 308 308 307 309 310 309 309 310 312 320 326 325 324 324 323 323 323 324 324 323 323 323 323 324 325 324 325 328 325 323 324 322 323 326 326 326 323 316 313 314 315 315 315 317 319 321 321 322 327 327 322 319 317 321 323 315 312 313 314 315 312 313 314 314 315 314 313 315 316 315 311 312 317 316 314 321 338 345 333 332 335 331 330 330 329 329
307 306 307 307 307 308 309 309 309 311 311 314 322 326 324 323 323 322 322 323 324 325 325 325 324 324 324 324 326 327 323 323 324 322 323 326 327 325 319 314 314 314 315 314 315 316 317 317 316 319 323 323 321 321 320 319 315 311 312 315 315 315 313 313 314 314 314 313 315 315 315 315 310 313 317 313 313 319 336 346 333 332 334 329 330 330 328 328
309 307 306 306 306 307 308 308 308 312 313 311 317 324 325 324 323 322 322 323 324 325 325 325 325 324 324 325 327 325 323 323 322 321 325 326 326 324 315 313 314 314 315 314 315 315 317 316 317 323 324 321 322 322 321 317 311 311 313 317 319 318 316 315 313 314 314 312 316 315 313 316 312 315 316 312 319 325 334 346 335 329 332 330 330 330 327 327
311 308 306 306 305 306 306 307 308 311 315 314 315 322 326 324 323 323 322 323 324 323 325 325 324 324 325 326 325 323 323 322 320 321 325 325 323 322 315 313 314 314 316 315 315 315 316 317 318 323 321 321 325 320 319 316 311 312 313 316 320 321 320 317 313 313 313 313 316 314 315 321 318 316 313 316 328 331 332 343 336 330 331 330 330 330 329 326
312 310 308 306 305 305 306 307 309 311 316 318 316 320 326 324 324 324 323 324 323 322 324 325 325 324 325 325 321 322 324 321 321 323 325 323 321 321 315 312 313 314 315 315 316 315 315 316 316 317 316 320 321 315 320 324 319 316 314 315 318 323 327 322 315 313 312 313 314 312 315 322 320 317 312 316 330 330 329 340 336 332 330 329 330 329 330 327
312 312 310 309 306 305 307 308 310 312 316 318 315 317 324 325 324 324 324 324 324 323 324 324 324 324 326 325 319 321 323 322 323 325 325 323 320 319 314 312 313 313 314 315 316 315 315 315 315 318 315 315 317 316 324 328 325 322 321 320 316 320 327 322 316 315 313 312 311 312 316 318 316 317 312 312 326 330 325 331 333 332 329 327 329 328 330 328
311 312 311 311 309 308 308 308 310 312 313 316 316 313 318 325 324 323 324 324 324 324 323 323 322 323 327 325 320 320 322 323 324 325 325 324 322 318 312 312 311 312 313 313 315 314 314 316 315 318 317 316 320 321 322 322 322 324 324 324 319 317 319 317 316 314 313 313 312 312 316 319 317 314 310 310 322 329 325 326 328 330 329 326 327 327 328 328
309 311 311 311 310 309 308 307 309 310 310 314 317 314 314 322 326 324 325 325 325 323 322 322 320 322 324 320 318 321 322 322 323 325 325 323 324 318 312 313 311 310 312 311 313 313 314 315 313 316 317 320 323 321 322 322 322 322 320 321 319 315 314 316 316 314 312 313 313 313 313 318 318 314 312 310 316 325 327 326 323 324 326 324 324 325 325 327
306 308 310 310 310 310 308 307 307 308 309 312 317 316 313 319 327 326 324 323 322 320 320 321 321 325 325 318 318 321 321 322 322 323 323 323 322 317 312 313 310 310 312 312 313 314 314 315 316 318 317 317 318 319 324 325 323 321 317 318 318 314 313 314 315 313 312 312 313 314 313 314 316 315 314 311 312 320 325 321 316 317 321 322 322 322 323 323
306 306 307 308 309 310 309 307 306 307 308 311 316 318 315 318 325 323 319 319 320 321 323 322 322 327 326 319 318 320 320 322 322 320 320 320 318 315 313 313 313 313 314 315 315 314 315 317 318 319 318 316 316 319 322 321 321 320 316 317 317 315 314 312 313 312 311 312 313 314 314 313 315 317 314 310 311 316 318 315 313 313 313 315 317 318 319 320
307 306 306 306 306 308 309 308 307 308 308 311 315 317 316 319 322 318 317 319 321 323 325 323 323 324 321 318 318 319 320 320 320 318 317 318 316 315 315 316 318 316 314 317 316 314 316 319 319 319 318 316 316 318 318 315 316 317 317 318 316 315 315 312 312 312 311 313 315 314 313 312 314 318 315 310 311 313 315 316 315 314 311 311 312 313 315 316
307 307 307 307 306 306 306 307 308 308 309 311 314 316 316 319 322 319 318 322 321 320 322 322 321 321 318 317 318 320 321 320 319 317 315 316 317 318 318 318 319 316 315 316 314 313 316 320 319 318 317 314 315 318 316 314 314 317 320 318 316 315 315 313 311 312 311 312 315 314 312 312 313 314 313 310 310 312 314 316 317 316 312 309 310 311 311 312
305 306 306 307 307 307 305 305 307 308 309 311 314 315 314 315 318 317 319 324 320 316 319 320 317 317 316 316 318 320 322 321 321 318 314 313 317 320 319 319 321 317 314 313 313 315 317 319 318 315 314 314 315 317 316 314 314 318 321 317 317 316 315 315 312 311 311 311 315 315 312 313 313 312 312 310 310 312 312 313 315 316 314 312 311 311 310 310
305 305 306 306 308 308 307 305 305 307 310 313 314 315 314 314 315 316 320 324 320 315 318 319 316 315 316 316 317 320 322 323 323 320 314 313 317 318 318 321 324 318 313 313 315 316 317 318 315 313 313 314 314 316 316 315 315 317 319 317 317 315 314 315 313 312 311 310 312 314 312 313 312 312 313 310 310 311 311 311 311 312 313 313 312 311 310 310
305 305 306 306 307 309 308 307 307 308 310 312 314 314 315 315 314 315 319 321 320 317 317 317 315 315 316 315 316 321 322 320 322 320 314 314 315 315 319 322 323 318 313 313 314 316 318 316 312 312 314 314 314 315 316 317 317 316 316 317 316 314 313 313 313 312 313 313 311 312 314 317 317 315 315 313 311 310 310 310 311 311 311 311 312 311 311 312
305 305 305 306 307 308 309 309 309 309 310 312 313 313 313 314 312 314 317 321 322 317 315 315 314 316 315 314 317 319 319 318 319 318 315 313 312 314 318 318 319 320 315 312 314 317 319 314 310 312 314 314 315 315 316 317 317 317 316 316 314 314 312 311 314 312 313 318 314 311 316 325 328 323 319 317 314 312 310 310 312 311 309 310 311 311 310 311
304 305 305 305 307 307 309 311 310 310 310 312 313 312 312 312 312 313 316 322 324 317 317 318 317 317 315 315 316 317 321 319 314 315 315 313 311 313 316 315 316 318 313 311 314 316 316 311 310 313 314 316 316 315 316 316 316 317 317 315 314 314 312 313 315 312 315 320 313 310 315 322 325 322 321 320 318 317 313 312 313 311 309 309 310 310 310 310
304 304 305 305 306 307 310 311 310 310 311 311 310 312 315 314 313 313 315 323 325 319 319 319 318 318 316 314 315 319 324 319 313 314 315 313 313 313 316 315 314 314 311 313 317 315 313 311 311 313 313 315 315 314 315 314 316 319 318 316 316 314 313 315 315 313 316 318 314 313 314 315 316 316 318 317 315 318 317 315 316 314 312 311 309 309 309 310
303 303 304 306 306 307 309 311 310 310 310 310 309 311 314 315 314 313 316 324 325 319 319 318 315 315 314 313 315 319 320 318 319 318 312 311 313 313 314 314 315 314 310 315 320 314 310 313 313 312 312 313 313 313 315 313 316 322 319 318 318 315 315 315 314 315 316 314 314 316 313 313 318 322 321 315 311 316 318 317 319 318 317 315 311 308 308 308
303 303 303 305 306 307 308 310 311 310 309 309 311 312 313 314 315 315 319 324 321 318 319 318 315 314 314 315 315 316 315 316 321 316 311 312 312 312 313 312 313 314 310 315 320 312 309 312 311 310 311 312 311 313 314 312 315 319 319 320 320 320 320 317 314 314 313 312 314 317 315 313 320 328 324 315 312 316 318 318 318 318 318 316 312 310 308 308
304 303 302 304 306 307 309 310 310 311 310 309 311 313 313 314 316 318 322 323 320 318 318 317 316 315 315 317 316 315 315 315 315 313 313 315 312 312 311 308 312 316 313 314 318 313 310 310 309 311 312 311 310 312 312 313 315 316 318 319 319 322 322 319 320 317 312 314 315 318 319 313 316 325 321 316 318 319 317 317 315 314 315 313 313 315 314 312
304 304 303 303 305 307 309 309 309 310 311 311 312 312 314 316 316 319 321 320 319 318 317 317 317 316 317 318 317 315 315 314 313 314 316 316 315 315 313 310 312 317 314 313 316 314 311 311 310 312 314 312 310 311 312 314 316 318 321 320 318 321 318 316 321 318 314 317 314 315 317 312 313 319 317 316 319 315 312 314 315 314 314 313 317 321 319 319
304 304 304 303 304 306 308 309 309 309 310 313 312 311 315 318 318 321 320 318 320 319 318 318 317 316 318 318 317 315 315 315 314 316 316 316 315 315 317 315 313 317 317 316 317 315 313 315 312 311 313 312 310 313 313 313 315 317 320 318 317 320 318 316 320 318 317 318 313 312 313 312 313 315 315 315 313 312 311 311 312 312 312 312 315 317 315 317
304 304 304 304 304 305 306 308 309 309 310 312 313 312 314 317 319 322 319 317 320 319 318 318 316 317 318 318 317 314 315 316 314 315 316 315 315 313 315 316 314 318 320 317 317 316 317 318 314 311 311 311 311 312 312 313 315 315 317 319 318 318 317 317 318 317 319 319 314 312 311 313 316 315 314 314 311 313 314 311 311 309 309 310 310 310 310 312
303 304 304 304 304 304 305 307 308 309 310 311 313 314 315 317 319 320 319 316 317 318 318 318 316 317 318 318 316 314 315 316 314 315 315 314 315 313 313 314 313 316 317 316 317 318 320 320 315 313 313 312 311 311 313 316 315 314 319 322 320 320 321 320 320 320 322 321 315 310 312 318 322 317 313 312 311 313 313 311 311 310 308 308 309 309 310 313
303 303 304 304 304 304 305 305 306 309 310 310 313 315 316 318 319 319 318 314 314 317 318 317 316 318 319 317 315 314 316 316 314 315 315 314 314 313 312 312 312 313 315 316 316 316 318 317 313 312 311 311 312 313 313 314 313 314 320 321 319 321 323 320 319 321 320 319 315 312 315 321 320 315 311 310 311 311 310 310 311 312 310 309 313 317 316 316
302 302 303 303 304 304 304 304 305 309 310 310 313 316 316 318 319 318 316 313 313 316 317 318 318 319 319 316 315 315 315 315 315 315 316 315 314 313 313 312 310 310 314 316 316 315 315 314 312 311 310 310 314 315 313 314 316 314 314 316 316 319 320 318 316 315 312 315 317 315 316 318 316 314 312 312 313 313 312 311 312 314 313 312 319 322 319 317
302 302 302 302 303 304 304 304 306 308 309 310 312 314 316 317 316 315 315 314 314 315 317 319 319 319 319 316 315 315 315 315 315 316 317 316 315 314 312 313 311 309 312 314 314 315 316 314 313 313 312 310 311 314 314 314 315 315 315 315 314 315 320 321 318 314 311 314 319 316 314 315 314 315 317 315 312 312 311 311 311 314 316 316 320 320 316 315
302 301 302 302 302 303 303 304 306 307 308 310 311 313 314 314 314 314 314 314 315 316 318 320 320 319 318 317 316 314 316 318 316 316 317 316 317 316 312 313 312 309 310 313 313 314 316 316 312 311 314 311 309 313 315 311 310 314 318 315 315 317 318 318 318 316 314 314 318 319 315 312 312 315 316 314 313 314 313 312 313 316 317 318 319 318 316 315
301 301 302 302 302 302 303 305 306 307 308 310 311 312 312 313 314 315 314 313 315 317 319 320 319 319 318 318 317 314 316 319 316 317 318 317 318 317 312 313 313 310 309 312 315 314 315 320 316 311 312 312 311 312 314 313 310 312 313 310 313 318 318 316 316 318 318 315 315 320 318 313 312 314 313 311 312 314 312 312 314 316 317 318 319 319 318 318
300 301 302 302 302 302 303 305 307 307 309 311 311 311 312 313 314 315 314 314 316 317 319 319 318 319 318 317 316 314 316 318 316 318 319 317 318 315 313 313 313 310 308 310 315 314 312 318 319 313 309 312 316 315 315 314 312 312 313 311 311 312 315 318 316 316 319 317 315 317 316 316 317 314 312 311 311 311 312 313 312 315 318 319 319 318 318 317
301 301 302 302 302 303 304 307 307 308 309 311 311 311 311 313 314 314 313 314 315 316 317 318 318 318 317 317 316 313 315 316 316 318 318 317 317 315 314 314 312 310 309 309 313 315 313 314 318 315 312 314 317 315 314 315 313 314 314 313 312 312 314 316 314 314 314 317 321 317 313 319 322 314 309 312 312 309 311 311 311 316 319 318 317 316 316 316
301 302 303 303 303 304 306 308 308 309 310 311 311 311 311 313 314 313 313 314 316 316 315 316 317 317 316 317 315 314 315 315 316 318 317 316 317 315 313 313 311 309 309 310 311 315 317 317 317 316 315 317 315 309 309 314 315 315 314 313 313 313 314 315 316 318 314 313 318 315 312 316 318 312 311 312 313 313 315 314 312 317 321 320 320 319 317 317
302 303 304 304 304 305 307 309 308 309 310 311 311 311 313 314 314 313 313 314 316 316 315 316 316 316 316 316 315 314 315 315 315 316 316 315 315 315 313 311 310 309 310 312 311 313 316 317 317 316 315 317 316 310 309 311 313 315 315 315 314 313 319 323 322 322 318 315 315 314 313 312 310 313 316 315 314 314 316 317 317 323 326 324 323 323 321 322
302 303 305 306 305 306 308 310 310 310 311 311 311 312 313 314 313 313 313 314 315 316 316 315 315 316 316 315 314 315 315 316 315 315 316 315 312 313 313 310 310 311 310 311 312 313 315 315 316 316 315 317 318 315 313 312 313 315 317 317 316 316 320 320 316 314 315 319 320 316 314 312 315 320 318 315 314 312 312 317 319 322 325 325 325 324 323 326
303 305 308 309 307 307 309 310 311 311 311 311 311 313 314 313 313 313 313 314 314 316 317 316 315 316 315 315 315 315 315 317 316 314 315 314 311 311 311 310 311 310 311 316 316 315 319 319 315 316 317 316 317 316 316 314 313 315 317 316 316 316 315 313 314 314 313 315 317 314 312 313 317 319 314 312 316 314 313 317 318 316 318 322 325 325 327 331
305 308 310 310 309 309 309 309 310 311 311 311 312 313 314 313 313 313 314 314 314 315 316 315 315 315 315 315 316 315 316 316 315 314 313 312 312 310 309 311 312 311 315 322 318 316 321 319 313 314 316 314 314 316 317 316 314 314 315 315 315 314 313 313 316 316 314 314 313 312 313 312 313 317 318 317 317 317 316 316 317 318 318 320 321 325 331 336
307 311 312 312 311 310 309 310 310 310 311 311 312 314 314 313 313 313 314 315 315 314 314 313 314 315 314 315 316 316 316 316 315 314 313 312 313 311 309 310 312 314 319 320 316 316 319 316 313 316 315 313 316 319 316 314 315 314 315 315 314 313 313 315 316 314 315 316 313 313 315 314 315 322 327 322 317 318 319 318 320 320 319 321 324 331 337 337
310 312 313 313 313 311 310 310 310 310 311 312 312 314 314 312 313 314 314 314 314 313 313 313 314 314 314 315 316 316 316 315 314 315 314 312 311 311 309 309 312 316 317 313 312 313 314 313 313 315 314 313 319 321 317 315 314 314 314 314 314 314 314 314 314 313 315 314 313 317 318 315 314 318 321 321 319 318 317 316 317 316 317 320 324 330 332 332
312 313 313 314 314 311 310 310 310 310 311 313 314 314 313 313 313 314 314 314 313 313 313 314 314 314 314 315 316 316 316 315 315 314 314 312 311 310 310 310 311 313 313 311 312 313 312 313 314 313 312 312 316 317 315 314 315 314 314 314 313 313 313 313 313 312 313 313 314 318 318 314 314 316 317 320 321 318 314 312 313 315 318 321 325 331 333 333
313 313 312 313 313 311 310 310 310 310 311 313 314 314 314 314 314 314 314 314 313 313 314 315 314 314 314 314 315 316 315 315 315 315 313 313 311 310 311 311 310 311 310 310 311 312 313 313 313 313 312 311 313 314 312 313 315 314 314 314 313 313 312 312 312 312 313 312 312 314 314 312 314 317 318 318 315 312 312 312 313 314 315 319 324 330 332 333
312 312 312 312 312 311 310 310 310 310 312 313 314 314 314 314 314 314 314 314 314 314 314 315 314 314 314 314 315 316 314 314 315 314 313 312 311 312 312 311 310 310 311 311 311 313 316 314 312 314 314 310 311 313 313 314 313 313 314 315 313 313 312 312 312 312 312 312 312 313 313 312 314 316 316 315 312 311 313 314 314 313 314 317 320 321 322 323
311 312 311 311 312 311 310 310 310 311 311 313 314 314 314 314 314 314 314 314 314 314 314 314 314 313 313 314 315 315 315 315 315 314 313 311 310 313 313 311 310 310 310 312 315 317 319 317 314 315 315 310 309 312 315 315 314 313 314 314 311 311 312 311 312 312 311 311 312 312 312 314 315 314 313 312 312 312 313 313 312 312 313 315 315 315 316 316
Wind_Speed
19 18 13 14 22 33 37 40 43 42 41 40 39 38 38 37 37 38 38 37 35 35 35 32 30 28 26 24 23 22 21 20 19 18 14 18 20 13 14 13 9 11 10 10 11 10 7 3 3 6 5 5 5 3 4 4 3 3 2 2 2 4 4 5 7 6 3 3 4 3 2 5 5 2 2 1 4 3 0 3 2 3 3 4 6 3 15 30
15 17 16 11 12 25 34 38 41 42 42 41 40 39 38 37 37 37 37 36 35 35 34 32 31 29 28 26 24 24 22 19 15 14 20 23 22 17 14 13 11 11 13 13 14 14 10 5 5 7 5 2 3 4 3 3 3 3 3 2 4 5 4 5 6 5 3 2 4 4 1 3 5 4 4 3 1 2 2 4 3 4 5 3 1 9 21 28
13 14 16 12 9 15 27 36 41 43 43 42 41 39 38 38 38 37 36 36 35 35 35 33 32 30 29 28 24 24 19 11 6 11 23 24 21 22 17 14 14 12 13 13 13 13 11 11 13 9 4 2 2 3 3 3 1 2 3 1 5 5 4 4 4 5 5 2 3 6 1 2 5 3 3 4 3 2 6 7 2 4 7 1 5 15 20 23
12 11 11 11 12 11 17 31 40 45 44 42 42 40 39 38 38 38 36 36 35 35 36 33 33 31 30 28 24 22 13 2 3 14 25 23 21 22 18 18 17 14 14 12 12 11 12 17 13 5 3 2 3 3 2 2 1 2 3 3 3 2 2 4 6 6 5 3 2 3 1 2 4 2 2 6 5 4 8 9 9 10 9 7 7 13 19 20
11 8 5 6 9 11 12 23 34 44 46 44 43 41 41 41 38 38 38 36 37 36 36 34 33 32 29 25 22 20 11 2 5 15 25 26 23 21 19 20 19 18 17 13 12 13 16 17 10 4 3 2 1 2 2 2 2 1 3 4 4 2 2 4 4 4 4 3 2 1 2 4 2 1 3 9 8 6 6 8 10 9 9 12 12 15 17 18
15 12 6 3 1 4 6 13 26 40 47 45 44 43 41 43 40 39 39 37 37 37 36 35 33 30 26 23 22 20 12 2 2 5 18 26 24 21 21 22 21 20 19 15 16 18 15 11 7 4 2 2 4 3 3 2 2 1 3 1 2 4 3 3 0 2 4 5 3 3 3 2 4 3 2 7 10 4 3 6 8 7 9 13 16 16 14 15
18 16 12 5 0 4 5 5 14 28 44 47 44 45 43 42 42 40 40 38 37 37 37 34 31 27 24 24 21 16 8 5 1 5 8 23 24 23 24 23 21 19 18 17 17 13 9 8 5 5 4 2 3 4 3 1 3 1 1 3 1 3 4 3 1 2 4 5 5 4 1 2 6 5 1 6 10 2 6 4 5 9 12 13 14 14 15 18
14 13 11 6 7 9 13 10 9 12 31 47 45 45 45 43 42 42 40 38 37 36 36 33 30 27 27 26 15 7 6 7 1 8 4 24 26 25 26 23 21 19 19 20 18 11 8 9 6 5 4 2 4 5 4 2 1 2 2 3 3 2 4 5 4 4 4 5 3 3 2 3 7 4 1 8 10 4 4 4 5 8 12 11 11 13 14 16
15 16 17 17 16 14 17 19 16 14 13 35 49 47 46 45 43 42 40 38 36 35 35 33 30 29 29 23 9 4 9 12 6 6 5 26 27 26 27 23 22 22 20 20 19 16 9 7 6 5 4 3 5 5 4 5 3 4 4 2 3 6 6 5 4 2 1 2 3 4 4 4 4 2 3 8 7 4 2 6 5 6 8 10 10 12 13 13
15 18 21 24 23 18 19 22 18 16 17 17 42 49 47 48 46 43 41 38 36 35 34 33 31 32 29 18 7 5 7 12 13 4 9 26 27 27 27 25 25 24 21 17 17 17 10 7 7 5 4 3 4 2 3 6 3 3 4 2 4 6 7 3 3 2 2 2 5 5 4 3 3 1 5 5 2 2 6 5 3 6 7 9 9 10 14 15
15 15 17 21 23 19 20 20 14 13 18 15 24 46 48 48 48 45 43 40 37 36 33 32 34 33 26 14 8 7 3 8 13 7 13 26 28 30 28 27 28 26 21 14 15 17 12 13 14 7 2 3 4 1 1 5 3 3 3 3 5 6 8 3 3 4 2 1 5 7 3 2 2 2 7 3 2 3 7 4 3 6 6 7 8 8 11 14
16 16 15 16 20 20 19 19 12 12 17 16 14 35 48 47 50 47 44 43 38 36 34 33 36 32 21 9 6 5 2 6 10 10 19 26 28 29 28 28 27 25 23 15 13 14 13 19 18 7 3 5 5 1 3 2 2 1 3 2 4 6 8 6 3 2 1 2 5 6 0 2 2 7 8 1 2 5 7 5 4 6 6 5 6 6 7 12
17 18 17 13 15 19 18 16 12 11 15 14 14 26 48 46 46 48 44 43 40 38 36 33 35 30 16 5 4 6 6 7 9 15 24 27 25 22 23 27 23 21 21 17 15 12 13 20 17 7 3 6 4 3 1 2 2 1 2 2 2 4 6 6 2 0 2 3 3 3 3 5 7 11 7 1 4 7 6 6 5 5 5 5 5 5 6 9
16 18 18 15 11 14 16 14 13 12 13 13 16 22 47 47 43 47 43 42 41 39 37 35 34 25 11 3 3 6 9 7 8 18 26 26 22 18 18 21 18 16 15 15 14 12 14 17 15 8 3 3 3 2 3 4 2 1 1 1 0 1 5 5 1 1 2 2 3 4 3 5 8 11 6 4 5 8 6 7 6 6 5 5 5 6 6 8
14 16 17 17 14 12 14 15 15 13 12 13 16 17 35 48 44 44 43 41 40 40 38 35 32 19 5 2 3 7 11 8 9 20 27 28 24 16 16 18 13 12 10 10 13 14 17 16 12 6 1 1 3 4 3 3 2 1 1 1 1 3 5 6 1 4 4 1 3 5 4 6 8 9 4 3 5 7 8 7 6 6 6 6 6 6 7 7
11 12 14 16 17 15 15 16 16 15 13 12 14 18 20 42 47 43 44 41 38 42 37 28 25 16 4 2 5 9 10 8 11 19 23 28 26 18 19 18 11 9 9 10 15 17 16 12 5 3 3 2 4 5 4 2 1 1 2 3 1 3 2 4 2 3 3 1 1 3 3 3 5 7 4 0 5 7 6 8 7 7 7 6 6 6 6 6
12 11 12 14 16 17 16 16 17 16 14 13 12 16 16 29 47 43 41 42 40 42 34 24 22 13 3 3 6 8 10 10 14 19 22 24 24 23 22 13 8 12 12 12 15 13 8 5 1 2 3 2 3 5 4 2 5 2 2 3 2 3 3 2 3 2 3 3 2 3 3 4 6 7 6 3 4 7 6 9 7 6 6 6 6 6 6 7
14 15 14 14 14 15 16 17 18 17 15 12 11 12 17 20 47 44 37 40 34 30 22 18 21 10 5 9 7 9 14 17 17 19 22 22 22 25 20 11 9 14 13 8 6 4 2 3 2 3 3 2 4 5 5 5 5 5 3 3 2 2 2 1 3 2 1 2 3 3 4 7 9 10 8 3 2 6 7 7 5 6 6 6 6 6 7 8
13 15 15 15 14 15 16 17 18 19 16 12 11 11 16 15 36 35 33 36 23 14 9 12 18 7 4 12 9 11 18 23 19 16 18 19 21 21 17 14 11 10 9 4 2 2 2 3 3 4 3 4 6 6 6 3 4 7 4 3 2 2 2 2 3 3 2 1 5 5 6 8 9 11 10 3 2 4 6 6 5 6 6 6 6 7 8 8
10 12 13 14 16 15 16 17 19 19 16 11 10 8 9 8 12 11 16 22 14 8 5 13 18 3 6 10 12 16 17 16 11 11 18 21 22 19 9 7 7 5 6 7 5 2 3 4 3 5 7 8 7 6 5 4 5 7 5 3 2 1 3 3 3 4 2 1 5 5 6 8 8 11 11 3 1 3 6 6 7 7 7 7 7 8 9 9
10 12 12 12 15 16 16 17 17 18 15 11 11 5 2 6 2 1 6 11 12 6 5 15 14 2 7 15 21 23 14 6 3 7 20 23 22 17 4 4 7 4 4 6 6 2 4 5 7 8 9 9 8 7 6 5 6 6 5 4 3 2 2 4 3 5 2 2 4 2 3 9 9 12 11 3 2 6 7 7 8 9 9 7 7 9 10 9
9 12 14 13 14 15 15 16 16 16 13 11 13 7 5 11 6 7 2 7 7 1 4 14 9 5 8 13 24 29 14 5 4 7 16 20 17 13 6 6 10 6 4 6 6 3 3 4 9 8 7 7 6 6 6 4 5 5 4 4 2 0 2 5 3 4 3 2 4 3 2 8 9 11 12 6 6 8 8 9 9 9 8 7 8 10 10 8
9 11 15 14 14 14 14 15 14 13 13 13 15 11 10 15 11 12 2 6 3 3 3 11 7 6 8 4 13 24 15 9 10 9 13 15 12 9 9 10 10 8 7 8 7 6 5 6 9 8 7 9 6 6 7 3 2 3 3 4 1 0 0 2 2 4 2 2 2 3 4 7 7 8 10 7 7 8 8 8 9 8 8 10 9 8 8 9
8 9 14 15 13 13 12 12 12 13 16 17 20 21 17 14 14 13 5 3 2 1 2 6 6 8 9 6 13 18 10 5 7 10 13 12 8 6 9 10 10 9 7 9 10 9 6 6 6 11 8 10 8 6 8 4 3 2 3 4 2 1 2 3 3 6 4 2 2 3 5 6 6 6 9 5 1 5 7 6 9 8 9 10 8 7 8 9
8 9 12 14 12 12 12 9 12 16 18 19 21 27 24 17 19 16 5 0 3 1 2 5 2 4 9 11 12 10 7 3 1 8 12 10 9 7 6 6 7 10 11 10 9 7 5 4 8 14 8 9 8 6 7 6 4 2 3 5 5 5 4 3 4 6 5 4 3 2 3 6 4 5 8 5 4 6 5 4 9 10 8 8 8 10 10 10
9 8 11 15 11 10 9 5 12 18 14 17 21 22 23 22 22 13 3 2 5 4 8 11 5 9 13 8 7 8 8 5 2 6 11 7 7 6 7 5 1 7 11 8 5 3 3 3 9 13 10 9 8 6 7 8 6 4 5 8 7 6 4 3 5 3 1 4 2 3 2 6 5 5 7 4 5 9 7 6 9 9 8 7 9 11 10 10
8 8 9 15 13 12 10 4 10 16 10 16 25 21 17 21 19 6 2 5 5 6 9 8 5 14 15 8 12 12 7 7 4 5 8 6 3 1 7 9 4 6 8 6 3 2 5 7 7 10 10 9 8 7 8 9 8 4 5 10 9 6 4 4 4 2 3 4 3 2 1 4 5 6 6 3 4 9 9 9 9 8 9 9 10 11 11 11
8 8 7 13 16 18 15 7 11 16 15 14 19 21 17 17 14 3 1 6 3 6 6 4 4 12 11 7 11 6 3 12 11 4 4 5 2 2 5 11 10 11 10 9 7 2 6 11 11 12 9 6 7 7 9 10 6 6 7 10 8 6 5 4 3 3 2 3 5 3 2 2 5 6 5 3 4 8 9 10 10 9 10 10 10 11 10 10
9 8 7 11 15 19 20 14 11 13 19 16 11 15 18 14 11 3 4 5 1 3 5 7 7 10 11 9 6 3 4 7 6 3 4 5 2 3 4 7 10 14 11 7 6 1 2 8 12 13 8 7 8 6 10 13 6 5 6 7 4 4 4 2 2 2 1 2 6 4 0 3 6 5 4 2 3 6 8 9 9 9 10 9 9 10 9 8
10 10 9 8 11 15 17 20 20 12 13 20 16 13 15 10 6 5 7 4 2 1 4 7 8 11 17 14 6 6 9 4 3 7 4 2 3 4 0 3 7 9 6 2 3 1 2 1 4 7 6 6 7 4 6 12 8 5 6 7 6 4 4 2 1 2 0 5 5 3 3 2 5 5 4 5 5 6 7 8 8 8 9 9 7 8 8 6
12 12 11 10 11 14 12 15 28 22 12 19 20 14 10 5 3 7 7 2 3 2 4 9 11 14 20 18 9 9 10 7 8 12 6 1 3 2 1 4 5 5 3 3 2 2 4 3 2 2 2 5 7 4 3 2 5 6 5 5 4 2 3 2 2 2 3 6 3 1 2 4 6 6 4 6 6 5 6 7 10 11 10 8 7 7 7 6
14 13 13 14 13 16 17 12 20 26 20 17 19 12 4 3 4 5 3 3 4 5 6 12 15 17 19 17 12 10 10 8 11 15 12 7 5 6 6 7 8 6 6 9 5 1 2 1 2 2 1 5 8 5 4 4 3 5 4 5 5 1 1 2 2 1 4 5 2 1 1 3 8 7 6 9 9 8 8 9 11 11 10 9 7 7 7 6
16 14 15 18 16 20 25 17 11 18 21 18 15 8 4 7 6 3 3 3 4 5 7 13 18 20 21 17 12 11 9 8 11 13 13 10 7 8 5 4 8 6 5 9 7 5 2 4 2 2 1 3 9 9 4 1 3 5 5 5 5 4 3 4 3 1 3 5 3 2 1 4 6 4 9 13 12 12 11 10 10 9 10 10 8 8 7 8
16 16 18 19 20 22 24 21 17 18 22 18 10 6 8 10 4 4 4 4 3 6 7 12 17 19 17 12 11 11 7 7 13 13 12 11 8 8 6 6 10 3 4 7 6 7 8 4 4 6 2 4 9 8 8 8 6 6 6 5 5 5 4 4 3 3 4 4 3 2 2 3 2 3 8 11 11 11 9 8 8 8 9 7 7 8 8 9
16 18 20 21 22 22 19 24 25 22 21 13 5 6 10 10 3 3 5 3 3 6 7 11 17 17 12 7 9 9 3 4 13 10 9 11 10 11 11 11 12 6 6 8 4 4 8 5 3 1 1 7 10 6 7 10 6 4 3 4 4 6 5 3 3 5 4 2 3 3 3 4 3 6 8 7 8 9 9 9 8 8 7 4 6 8 8 9
16 18 19 22 24 19 18 28 29 23 19 8 5 8 9 6 3 4 6 6 7 10 13 12 13 14 9 6 9 6 5 2 12 8 7 10 10 12 12 10 11 10 9 9 4 3 6 2 3 3 2 5 7 6 6 6 6 3 3 5 5 5 7 4 1 1 3 3 4 2 5 5 4 7 9 8 11 11 10 9 7 8 6 4 6 8 7 7
16 16 15 21 26 21 21 29 29 24 17 7 7 11 5 3 4 5 7 9 10 15 17 12 10 11 9 6 8 8 4 6 10 7 6 9 8 11 11 7 10 14 10 6 2 3 5 2 3 2 2 2 1 3 3 1 3 6 5 7 4 2 3 4 1 1 1 4 5 1 5 5 4 6 5 6 10 13 13 9 5 6 6 5 7 8 7 7
16 13 13 23 29 25 24 30 29 22 12 4 10 14 5 3 5 7 9 9 12 16 15 10 8 10 12 11 11 14 13 11 10 9 9 8 6 13 17 10 9 14 9 3 2 2 4 4 3 1 3 2 3 4 3 4 2 4 5 5 5 2 2 2 2 3 2 4 5 3 4 4 6 7 4 5 7 10 13 10 6 6 6 5 7 8 7 6
16 9 10 23 32 29 29 31 26 16 7 6 13 13 5 4 6 9 11 12 13 15 13 10 8 9 12 14 14 15 14 13 14 11 9 9 5 11 20 13 7 14 11 5 5 3 3 5 1 2 1 0 2 2 6 2 3 3 3 3 2 2 4 3 3 3 3 3 3 3 4 4 6 6 6 9 11 10 13 11 7 7 6 5 6 7 6 6
11 6 9 21 30 34 36 29 16 9 6 8 12 10 7 7 8 10 14 16 12 9 10 12 12 11 13 13 13 12 9 11 15 10 7 10 6 6 16 13 8 13 11 4 4 5 3 4 3 0 2 2 2 3 8 8 4 3 4 4 2 2 2 2 2 2 4 3 3 3 6 6 4 4 9 11 12 12 14 14 8 5 6 6 6 6 6 6
7 8 9 18 32 38 32 18 7 7 7 10 13 11 9 8 8 12 15 16 12 5 5 12 14 13 13 13 12 11 8 8 13 10 4 10 9 4 11 14 11 13 10 3 3 6 2 3 5 3 1 3 4 4 5 8 8 7 6 7 7 5 4 3 4 1 2 3 4 2 7 9 4 4 8 9 10 11 13 13 7 4 6 7 5 6 6 6
7 11 8 21 40 42 24 8 6 10 10 11 12 10 8 7 9 15 15 14 12 4 2 9 12 10 10 12 13 14 11 9 12 11 5 9 12 6 7 12 14 14 12 5 4 4 3 4 5 3 3 4 4 4 3 4 5 6 4 5 6 6 6 6 6 3 1 2 2 3 6 9 3 4 6 7 8 8 7 8 5 4 6 6 5 6 5 6
8 14 11 26 50 43 17 7 11 12 11 11 12 12 11 8 10 15 15 13 10 3 3 6 8 8 7 9 12 13 10 8 11 13 6 5 9 6 8 14 17 15 11 6 5 4 3 4 5 2 1 3 5 3 1 1 3 3 2 2 6 5 4 5 5 4 2 3 2 2 6 7 2 2 5 6 7 7 5 4 5 6 5 5 6 6 5 5
9 13 12 30 56 45 16 9 13 13 12 14 15 17 13 9 12 16 18 17 10 5 6 6 8 9 8 11 14 16 14 8 10 12 6 5 5 5 12 18 19 17 11 8 8 6 3 4 5 5 3 3 3 2 3 3 2 3 2 3 5 5 8 4 3 4 2 6 8 4 9 8 4 4 4 5 6 7 7 5 5 6 6 6 5 4 5 5
9 10 8 24 43 34 14 12 15 14 17 18 18 20 16 8 11 17 20 19 15 12 11 9 11 11 9 12 14 16 17 11 9 8 3 3 3 3 11 20 20 17 10 8 10 7 4 4 6 8 8 7 8 7 6 5 3 1 3 6 7 9 11 7 3 3 8 9 11 10 11 5 4 3 2 3 3 5 8 7 5 6 7 6 5 4 4 4
9 9 8 13 19 19 14 16 17 16 19 19 15 18 19 10 8 15 19 18 16 15 12 8 11 10 10 15 13 12 15 10 6 9 6 6 4 2 10 19 19 16 12 14 14 8 3 3 6 9 11 13 11 7 6 12 10 8 10 13 13 13 15 10 5 6 8 5 8 15 12 3 3 3 3 5 4 6 8 6 5 6 7 6 5 5 5 5
12 11 12 10 8 13 16 17 19 16 19 21 14 15 20 15 11 14 16 14 12 11 7 6 12 13 12 17 14 11 16 9 5 13 15 11 7 3 7 13 15 16 15 15 14 8 4 5 10 11 14 12 6 4 9 16 16 16 15 16 15 13 13 12 12 11 6 5 8 10 8 7 7 6 6 7 6 6 7 7 6 6 6 6 5 5 6 6
13 9 13 15 10 12 17 18 20 19 19 21 14 15 22 21 17 17 14 11 11 10 6 7 14 18 18 22 16 11 16 10 5 13 15 12 10 8 7 9 12 17 17 13 11 9 6 10 12 14 15 8 4 4 10 13 12 12 15 17 15 14 16 18 22 16 10 8 12 7 11 13 10 7 9 8 7 8 7 7 5 5 6 6 5 6 7 7
10 6 11 16 14 16 20 20 22 23 22 20 14 14 22 23 22 19 13 11 12 12 10 11 16 19 19 21 16 12 15 13 9 13 15 14 14 13 12 9 9 13 15 13 9 5 5 8 8 10 12 3 5 2 8 9 6 7 12 15 16 17 20 22 26 20 14 17 14 6 7 11 7 8 9 7 7 7 4 3 3 5 6 6 6 7 7 8
10 10 11 12 12 17 22 22 24 22 19 18 14 13 18 22 22 18 14 16 17 13 13 16 20 22 22 23 19 16 20 23 20 19 19 20 17 13 13 11 8 9 10 9 6 1 3 6 3 6 7 0 6 4 2 4 5 6 7 10 13 17 21 24 23 15 12 18 14 4 10 11 5 6 8 7 6 4 2 5 6 7 8 7 6 7 8 9
9 14 16 13 11 17 20 18 23 21 16 17 15 13 17 22 22 17 12 16 21 20 19 21 23 21 20 23 24 22 26 29 26 21 19 20 16 9 5 6 10 12 9 6 4 2 2 2 3 6 6 3 4 5 6 6 5 2 5 11 17 19 19 18 13 10 13 16 12 10 15 9 4 7 9 8 6 4 6 9 8 9 8 7 8 9 9 10
8 14 19 16 13 18 17 14 19 20 16 16 15 15 18 21 22 20 13 11 17 22 22 24 24 18 15 23 29 26 23 20 13 10 10 11 11 9 7 10 15 16 11 7 4 2 5 5 3 5 7 3 3 5 7 7 6 2 10 16 19 18 14 9 8 13 16 13 9 13 14 6 7 9 10 9 8 9 11 11 10 11 10 9 10 11 11 11
Wind_Direction
238 245 239 220 208 208 206 195 189 189 188 187 188 189 189 189 188 190 190 190 191 190 191 193 193 193 191 190 189 189 190 187 184 184 194 208 202 189 186 190 181 176 169 151 146 140 123 92 28 36 19 357 353 338 350 358 68 63 90 122 202 184 196 185 181 191 166 303 304 291 249 180 193 192 167 80 52 62 324 286 308 305 280 256 292 317 163 166
232 239 241 241 213 206 208 200 190 187 188 187 188 188 188 188 188 189 188 188 189 189 189 190 191 189 188 188 186 186 187 188 188 195 207 211 209 203 197 195 187 178 170 159 152 141 123 122 118 75 45 33 347 333 354 359 46 83 117 158 218 195 203 195 176 176 172 295 282 265 207 189 218 173 155 194 260 75 171 258 337 323 280 318 10 151 158 163
224 238 243 262 255 211 211 209 196 188 187 187 187 187 187 187 187 187 186 187 187 187 187 187 188 186 187 186 184 185 182 181 193 219 216 209 209 211 210 209 198 187 179 174 171 159 150 154 141 112 57 47 355 333 5 9 358 127 130 211 236 213 229 224 189 183 207 228 270 279 137 154 241 185 161 181 170 160 201 224 215 244 247 250 134 150 159 163
211 233 249 265 270 252 223 213 200 189 187 186 186 186 185 185 186 186 185 186 186 186 185 185 185 184 184 182 184 185 170 118 246 232 226 216 215 217 218 214 205 199 190 182 186 180 155 142 136 113 87 90 352 351 352 346 36 122 148 197 226 200 248 226 202 197 201 193 222 273 139 215 243 196 187 151 144 238 234 220 204 211 203 176 163 160 164 167
188 197 238 254 266 272 242 220 205 191 187 186 185 185 184 183 185 185 185 185 185 184 183 182 182 181 182 182 185 178 147 61 241 229 231 225 220 218 212 206 204 201 191 185 174 155 140 132 119 68 75 119 59 33 296 294 101 140 212 197 187 153 270 247 202 192 159 147 165 110 203 222 184 186 189 161 182 235 241 223 210 207 181 167 168 165 168 172
176 169 172 180 271 287 251 226 213 196 187 185 185 184 184 182 182 184 184 185 184 184 183 181 181 181 182 182 181 171 157 187 198 222 228 220 213 204 196 192 194 195 189 182 156 135 130 123 113 109 85 107 143 170 236 298 58 178 257 256 192 173 248 284 110 202 142 124 156 177 228 185 147 242 182 179 211 226 311 250 206 188 169 165 161 161 170 177
164 156 149 143 138 291 292 244 223 205 190 186 185 184 184 182 181 182 184 184 185 184 183 183 182 181 179 174 173 172 184 224 89 19 221 205 200 189 185 185 186 189 186 175 152 135 130 132 135 129 116 98 165 198 186 348 11 104 260 332 312 179 227 267 282 238 165 167 207 186 163 139 184 217 94 214 226 229 343 311 171 154 150 156 159 168 180 183
175 174 177 212 263 275 283 272 262 235 194 187 186 184 183 182 181 181 183 185 185 186 185 185 182 178 174 167 163 172 208 228 258 14 187 188 188 181 181 183 184 186 183 177 165 154 140 147 157 133 143 176 179 193 158 139 296 241 234 315 329 275 260 271 262 243 198 207 215 142 179 232 208 184 140 239 240 253 341 41 112 135 139 157 172 179 185 187
210 215 219 239 258 263 272 272 271 286 233 192 187 185 183 183 182 181 183 185 185 186 186 184 180 176 173 165 149 169 208 224 237 354 175 181 183 182 182 180 178 181 182 186 180 166 155 165 178 153 157 176 172 180 159 164 223 222 198 244 306 309 297 295 278 243 220 231 134 150 227 262 234 186 257 255 248 229 110 82 113 135 147 172 181 186 188 190
211 215 217 231 246 251 260 271 275 285 291 222 190 186 184 184 184 182 183 184 184 184 182 182 179 173 171 162 147 185 214 220 224 273 179 180 182 179 180 177 173 177 180 187 183 170 168 173 160 141 120 118 170 154 149 180 193 170 164 225 251 287 297 300 290 287 304 258 154 176 225 253 265 222 244 276 322 159 120 107 146 156 176 185 186 193 192 195
202 207 211 221 233 243 250 262 281 278 283 276 202 188 185 184 184 184 184 184 182 181 180 178 176 171 169 164 165 191 216 204 213 224 181 182 181 176 176 174 171 176 178 177 183 178 170 155 135 118 105 118 159 71 306 202 156 144 161 251 258 289 292 274 289 281 282 246 171 165 199 258 331 247 230 253 43 121 131 146 175 180 200 196 196 199 196 205
193 195 202 212 226 235 243 251 265 272 272 285 245 196 188 186 184 184 183 183 183 182 180 177 175 170 165 172 191 188 161 182 195 192 181 181 178 174 174 172 172 179 179 172 183 183 167 154 138 118 169 144 138 175 268 198 117 170 155 219 295 329 291 272 303 264 157 208 182 149 244 283 231 229 238 265 87 105 125 169 198 202 213 206 209 207 206 214
193 192 191 197 222 229 237 249 248 264 269 275 279 211 192 187 183 182 182 182 183 182 180 177 176 171 162 174 199 174 162 174 178 174 177 179 173 170 173 174 177 185 185 180 178 174 164 160 145 119 137 130 141 198 180 65 55 244 116 122 340 354 278 272 339 273 166 184 174 144 272 266 240 239 240 176 129 111 132 193 205 214 218 211 212 212 219 218
188 190 188 188 213 231 234 248 244 251 262 260 280 225 192 187 184 181 181 181 181 182 180 177 176 173 170 178 161 162 167 174 181 173 175 175 165 160 169 174 179 186 191 188 173 160 159 152 129 103 88 115 156 160 48 17 17 134 105 96 146 198 264 286 16 152 185 188 109 124 242 264 262 255 235 203 162 140 185 217 210 217 219 215 213 213 224 220
184 187 191 194 202 223 232 240 240 240 255 256 276 254 194 186 185 181 181 180 179 179 175 173 175 169 166 228 178 169 168 167 180 177 177 172 159 151 161 163 166 175 183 184 167 154 150 136 110 103 106 71 118 104 62 6 16 51 194 219 169 192 274 304 244 176 188 307 81 133 223 266 268 265 244 211 173 164 205 222 213 219 220 221 219 217 224 228
191 186 193 202 200 209 225 237 239 236 253 256 265 278 220 188 183 182 180 178 177 176 169 170 175 164 157 212 166 168 168 165 179 180 178 174 166 154 150 146 137 145 152 151 149 146 138 121 96 118 123 93 113 111 87 51 347 350 217 219 178 165 251 300 272 205 168 101 35 173 222 267 279 290 324 8 173 174 213 231 220 216 221 225 224 225 228 235
201 197 198 206 203 205 216 232 240 239 250 263 261 276 264 197 182 181 178 175 174 170 165 169 169 159 164 166 158 180 173 161 174 176 174 176 173 156 143 132 112 119 121 127 137 137 119 93 97 124 84 90 128 120 112 177 220 226 191 208 204 163 188 260 291 276 126 132 234 228 226 249 264 281 319 0 160 169 212 236 234 224 225 227 229 235 236 234
204 209 208 210 208 203 211 227 239 243 241 261 270 269 286 216 180 173 166 161 160 156 157 164 160 160 222 190 172 171 168 163 167 171 169 172 170 158 146 129 117 115 107 113 128 119 74 43 88 118 74 104 147 156 171 200 199 174 170 181 202 212 193 274 295 280 112 149 225 223 237 257 264 270 283 319 139 175 218 244 253 248 235 226 226 229 234 235
205 214 219 221 216 204 208 221 233 243 239 250 266 260 284 230 173 161 152 147 148 152 155 169 167 174 201 177 152 136 161 164 159 163 161 162 159 149 138 125 118 118 121 134 150 141 118 68 80 129 145 170 177 177 174 167 134 139 147 144 164 248 248 251 270 293 343 285 249 230 233 249 252 263 270 283 128 192 245 276 264 252 242 232 228 226 231 231
207 217 226 228 226 219 211 216 225 238 239 241 251 247 278 242 162 147 149 149 169 171 136 173 176 153 79 126 119 118 140 147 140 156 158 160 152 134 119 115 98 97 140 149 157 170 117 122 169 179 178 183 179 164 138 112 115 123 107 93 112 2 311 281 281 311 344 275 267 244 240 255 249 256 263 266 54 249 261 271 257 252 246 234 231 232 233 231
217 224 233 231 231 233 223 220 224 232 239 239 236 229 241 227 132 67 178 163 183 162 114 168 167 94 108 128 135 132 123 112 90 160 158 157 152 142 150 161 132 132 155 136 132 119 91 143 203 202 183 175 167 162 141 104 93 99 100 83 60 68 286 277 283 308 324 188 271 300 254 261 257 259 262 225 232 261 242 238 249 248 245 240 236 239 238 238
223 228 234 233 234 238 232 231 230 230 238 238 230 221 226 243 309 347 235 164 178 68 108 156 127 56 120 130 149 146 129 122 150 179 165 157 160 165 175 161 154 154 142 125 119 119 116 204 221 202 166 143 139 154 152 127 97 90 99 97 65 21 281 275 279 329 346 188 269 335 303 263 258 260 263 232 220 251 235 222 237 240 242 245 234 238 242 246
228 230 233 234 236 237 234 235 234 232 235 234 227 222 232 248 296 340 333 142 145 347 128 149 118 110 123 108 161 150 140 154 164 189 182 164 168 174 159 159 161 147 150 159 150 146 165 239 219 176 137 131 134 156 160 177 135 110 112 116 141 254 66 250 287 335 323 207 266 316 311 277 267 269 270 241 214 253 255 235 243 239 235 240 237 241 240 238
236 233 231 233 235 234 231 232 232 230 231 234 235 234 244 259 280 300 315 111 129 348 131 132 119 143 141 140 164 156 148 152 159 177 182 168 156 154 156 158 152 149 173 172 156 161 195 260 177 145 150 148 143 157 158 179 204 154 140 135 148 181 177 210 293 327 316 331 348 326 317 286 264 265 264 262 266 277 273 262 262 251 237 245 261 262 239 231
243 243 236 234 237 229 222 220 220 221 225 235 239 241 247 258 268 277 306 37 170 118 129 134 103 173 148 133 148 151 133 106 19 172 179 173 149 142 154 156 155 165 173 159 153 177 226 269 148 145 158 146 140 164 164 166 189 219 187 158 166 191 207 246 310 342 344 331 349 22 313 283 291 278 252 272 335 292 284 284 262 256 247 243 254 254 241 238
243 253 242 236 238 219 210 214 215 212 217 233 236 240 244 241 248 264 317 262 202 165 164 160 165 169 156 134 127 122 134 155 347 150 170 185 164 147 149 153 132 163 163 148 152 193 211 201 149 146 151 146 151 179 185 166 158 232 204 161 179 196 188 266 299 337 329 282 301 97 218 268 311 302 258 284 318 290 291 287 264 262 259 239 236 245 241 239
242 255 245 236 232 206 202 188 191 199 208 230 229 229 234 227 230 249 334 258 212 165 160 158 171 163 161 165 146 137 155 155 105 147 178 184 189 158 156 162 142 154 157 135 174 208 148 158 152 145 150 155 168 186 193 165 145 231 202 161 186 196 181 243 269 236 233 281 310 62 139 262 287 271 265 307 303 288 289 280 270 265 258 246 239 241 238 238
242 252 247 236 227 213 214 178 159 198 215 221 222 223 227 213 201 183 239 240 193 136 146 139 142 141 139 149 145 134 145 140 136 180 188 147 159 1 156 172 159 158 166 158 184 216 132 164 174 161 156 168 187 188 173 153 153 234 196 160 179 174 172 221 238 238 264 315 295 315 52 256 270 273 296 327 265 274 280 271 268 260 254 250 246 248 245 246
240 246 246 235 228 226 228 214 190 213 218 214 219 220 216 196 169 171 246 226 108 111 148 139 135 128 127 132 132 113 119 138 147 146 124 126 98 26 153 175 148 153 174 167 163 182 156 185 176 159 164 187 188 175 158 161 183 224 159 116 104 114 112 151 199 221 318 290 259 262 192 252 268 268 283 306 248 256 266 263 256 251 254 254 255 262 261 262
234 240 247 236 229 230 229 226 225 222 204 211 218 202 190 176 161 216 236 207 117 139 152 146 155 150 146 143 137 149 139 121 118 117 112 120 65 13 81 109 101 139 175 153 130 202 318 287 167 157 173 178 157 123 155 173 169 130 110 83 66 65 63 73 129 106 193 272 265 236 193 217 273 263 225 227 224 216 235 263 268 260 262 261 259 267 266 266
234 239 245 235 228 221 213 224 226 221 205 202 198 180 172 168 185 215 226 182 120 177 160 145 149 151 154 151 148 160 142 123 140 139 144 152 85 29 153 111 91 104 144 185 202 325 19 72 184 208 167 126 111 78 21 140 131 108 105 106 92 37 44 62 13 79 209 257 285 258 172 167 242 257 225 239 250 225 219 248 264 266 269 268 263 266 267 265
235 236 239 239 236 223 218 229 225 220 219 197 173 163 180 217 212 203 194 159 167 197 170 144 147 155 157 152 147 155 143 136 157 153 152 158 154 173 177 164 158 148 174 193 187 74 53 165 221 275 251 138 130 123 25 24 102 115 113 125 129 136 137 187 232 184 225 256 253 198 132 197 242 252 247 259 270 259 239 234 245 258 268 273 272 272 272 270
236 237 241 242 238 231 228 231 228 216 211 194 170 165 207 225 225 168 149 198 181 171 162 152 156 157 155 152 148 144 132 142 163 159 152 153 163 178 187 193 182 171 173 174 162 155 208 295 267 171 259 183 154 153 148 142 163 154 148 152 158 158 168 200 221 263 259 267 250 182 166 262 277 269 235 239 249 251 247 243 240 245 255 263 272 280 283 280
240 239 246 248 241 240 235 229 228 210 192 187 186 186 203 217 228 112 148 226 175 141 154 154 150 150 150 147 146 142 125 153 164 157 152 149 161 181 187 206 203 177 103 149 168 174 184 246 219 174 192 184 168 169 160 146 160 181 164 147 160 164 167 187 194 212 236 263 269 219 194 217 227 275 240 230 250 265 264 263 258 251 252 259 276 281 278 276
247 244 248 253 249 245 235 229 229 206 183 188 211 205 207 211 202 139 161 185 162 140 140 145 143 146 146 131 148 152 87 156 163 152 156 161 169 182 182 192 194 161 130 164 183 171 182 232 253 221 232 167 167 181 145 130 156 205 144 131 192 193 162 149 187 179 172 255 262 217 228 220 205 278 277 248 256 270 266 264 269 267 264 264 274 272 263 264
254 253 250 247 245 240 227 228 226 204 186 195 231 218 215 213 199 173 158 158 165 147 137 149 154 150 144 131 159 165 16 128 162 154 166 170 176 188 187 189 186 176 168 164 148 156 177 240 332 13 8 171 172 176 157 151 172 166 148 182 200 177 142 129 256 68 90 251 261 207 248 290 316 285 283 269 262 268 266 257 255 270 283 285 266 262 259 264
255 255 249 241 237 229 225 226 219 204 196 195 228 224 214 215 204 161 156 164 161 151 147 160 170 157 146 141 161 165 115 131 159 159 163 170 186 195 196 202 189 188 188 162 145 192 157 118 342 50 118 259 297 114 97 10 136 135 183 196 156 104 107 108 219 325 57 249 269 242 241 274 282 267 308 310 268 264 269 270 266 274 275 265 262 262 268 276
251 249 247 242 233 221 222 220 209 204 202 191 225 226 207 199 197 160 160 162 156 160 162 166 174 164 160 161 165 167 158 152 165 166 161 176 204 192 190 200 189 188 196 151 131 210 139 110 321 297 152 270 344 102 108 355 40 137 180 177 131 153 209 126 179 201 180 248 277 298 277 259 224 234 299 302 258 255 270 281 291 283 266 259 271 276 286 297
247 246 249 239 227 217 215 210 200 203 210 196 216 220 197 193 198 170 163 163 165 171 170 169 170 169 174 171 162 167 170 163 166 167 168 181 208 195 190 193 177 181 188 148 142 186 138 122 232 288 140 182 2 157 182 190 20 55 120 139 119 140 173 170 169 172 173 225 277 315 312 267 215 200 211 238 249 255 266 272 271 274 275 267 272 280 293 299
236 241 248 227 215 207 203 199 195 206 212 205 212 206 178 186 194 179 171 169 174 181 176 174 172 169 174 166 153 164 173 160 164 174 179 178 185 211 197 190 167 171 171 123 133 168 139 124 162 290 18 168 198 210 187 167 147 133 136 156 177 116 120 166 168 140 144 182 229 291 288 265 233 186 190 214 237 243 254 262 252 254 274 270 271 282 291 290
220 244 239 206 198 193 189 192 201 201 203 212 213 201 189 193 181 178 182 178 179 204 193 176 175 172 167 159 153 161 158 151 170 180 177 181 185 213 201 184 157 156 157 129 157 170 148 118 139 140 134 188 232 255 197 173 169 169 173 184 183 155 128 166 221 229 96 172 189 214 272 266 238 191 195 207 223 228 244 258 246 220 253 262 267 268 266 271
226 243 212 178 184 182 177 195 202 193 208 210 202 189 186 197 180 174 183 188 187 204 191 176 176 169 163 160 157 159 156 154 176 184 189 195 192 198 196 169 149 156 162 155 165 159 116 102 112 140 192 206 255 268 224 193 146 137 186 192 164 161 150 161 211 230 104 222 153 112 273 274 248 196 208 219 234 239 254 276 281 257 255 261 271 274 269 266
227 240 225 184 180 175 173 212 193 192 210 198 191 190 184 192 188 174 176 188 193 178 150 172 169 159 163 157 150 156 156 150 178 186 179 190 195 190 169 151 144 158 167 159 166 158 123 112 101 93 271 303 304 301 321 346 97 138 224 148 144 176 154 142 181 174 170 218 126 96 263 268 285 251 242 247 265 283 295 291 279 277 284 281 273 278 282 275
232 243 239 189 179 174 180 205 187 190 198 190 193 195 188 193 191 178 175 181 186 171 162 172 171 169 167 155 156 166 164 155 187 193 175 174 190 162 155 153 152 166 180 175 168 165 148 135 120 115 88 4 324 301 283 264 207 193 188 119 138 128 99 104 140 105 230 207 156 182 248 244 265 295 281 269 283 298 291 262 246 261 274 275 273 286 294 293
239 238 219 182 177 176 187 195 183 184 189 190 194 191 188 198 198 188 179 176 180 178 175 182 179 166 153 156 166 176 174 167 175 183 163 146 168 144 158 163 164 175 181 147 140 144 145 157 153 146 154 176 192 208 215 189 169 192 147 148 159 142 142 167 137 136 234 208 164 205 241 252 300 308 307 287 276 276 271 257 243 254 261 272 288 304 303 296
238 223 188 172 173 177 186 190 186 185 186 186 189 190 186 184 197 195 183 179 184 179 171 176 170 154 150 164 168 179 186 181 151 160 162 151 167 209 174 170 172 176 162 136 138 136 112 171 186 177 188 192 187 189 146 128 146 188 180 172 179 176 174 171 145 194 217 173 188 225 228 232 299 278 271 278 250 244 260 254 249 260 270 280 279 282 290 277
225 211 179 162 159 173 180 188 190 187 186 183 181 185 183 177 180 190 189 187 184 172 155 144 158 160 164 168 167 181 190 186 140 164 171 164 156 127 163 177 178 169 155 147 153 142 116 200 199 197 214 209 173 160 141 142 170 188 178 178 184 180 173 176 202 210 156 130 230 224 183 202 245 247 250 255 234 235 248 241 242 250 258 270 274 286 292 278
218 203 172 160 146 167 177 182 184 183 185 188 185 178 179 179 177 180 186 181 175 176 161 146 168 173 172 170 170 178 185 185 173 175 173 166 154 136 153 193 191 173 163 165 171 153 158 209 201 195 214 213 103 143 166 164 179 179 176 185 183 178 180 194 215 210 154 195 232 169 155 203 221 214 225 228 214 220 225 221 234 254 260 268 273 280 282 274
199 172 169 161 148 162 168 166 174 181 185 188 193 186 181 182 180 177 173 163 174 190 176 160 174 176 172 174 173 171 180 186 192 187 177 170 168 157 158 184 203 188 174 171 180 169 174 205 200 188 203 207 44 138 179 164 154 164 188 193 184 187 194 204 218 212 196 224 231 152 177 226 217 206 225 232 217 208 204 220 241 253 253 246 245 255 261 260
180 163 164 153 143 158 161 162 171 180 185 186 193 193 184 184 183 177 172 168 172 184 179 172 176 175 175 180 182 184 187 189 192 190 177 171 174 173 171 173 176 181 178 173 179 206 189 193 164 149 179 247 21 32 81 119 144 168 201 203 198 204 208 215 221 211 211 237 242 252 265 259 231 218 237 248 234 193 205 244 239 237 234 222 230 252 258 258
182 158 154 146 147 161 163 167 172 176 184 189 189 185 183 189 184 174 180 184 175 174 181 180 177 176 179 183 189 196 195 194 195 189 177 174 172 163 166 163 149 153 163 167 157 93 109 162 67 102 155 254 358 65 66 52 63 71 239 218 209 212 214 220 221 200 211 228 229 243 256 248 192 211 232 245 255 254 254 255 253 253 245 228 235 248 251 253
170 154 155 147 149 164 166 168 174 179 183 181 179 179 181 185 181 172 177 197 189 184 186 180 173 171 178 190 200 203 195 190 186 165 158 164 152 129 121 134 143 150 153 149 140 111 125 129 95 129 161 247 323 113 111 74 54 303 244 219 210 214 216 219 226 220 218 213 205 228 239 210 170 200 219 232 238 238 245 248 250 255 253 241 239 243 245 247